Demopolis Municipal Airport, AL

11:34 AM CST on November 15, 2019 (GMT -0600)
Demopolis Municipal Airport

Weather History for KDYA - September, 2019

Change the Weather History Date:

Sunday, September 29, 2019

  Actual Average (KNMM) Record (KNMM)
Temperature  
Mean Temperature 81 °F -  
Max Temperature 95 °F 79 °F 91 °F (2017)
Min Temperature 67 °F 58 °F 43 °F (2003)
Cooling Degree Days 16    
Growing Degree Days 31 (Base 50)    
Moisture  
Dew Point 67 °F    
Average Humidity 70    
Maximum Humidity 100    
Minimum Humidity 35    
Precipitation  
Precipitation 0.00 in - - ()
Sea Level Pressure  
Sea Level Pressure 30.12 in    
Wind  
Wind Speed 0 mph ()    
Max Wind Speed 0 mph    
Max Gust Speed -    
Visibility 9.5 miles    
Events      
Averages and records for this station are not official NWS values.
T = Trace of Precipitation, MM = Missing Value Source: Averaged Metar Reports

Daily Weather History Graph

Daily Weather History Graph

Search for Another Location

Airport or City:

Astronomy

Sep. 29, 2019 Rise Set
Actual Time 6:44 AM CDT 6:39 PM CDT
Civil Twilight 6:19 AM CDT 7:03 PM CDT
Nautical Twilight 5:51 AM CDT 7:32 PM CDT
Astronomical Twilight 5:22 AM CDT 8:00 PM CDT
Moon 7:34 AM CDT (9/29) 7:42 PM CDT (9/29)
Length of Visible Light 12h 44m
Length of Day
11h 55m
New Moon, 1% of the Moon is Illuminated
Sep 29
New Moon
Oct 5
First Quarter
Oct 13
Full
Oct 21
Last Quarter
Oct 27
New

Hourly Weather History & Observations

Time (CDT) Temp. Heat Index Dew Point Humidity Pressure Visibility Wind Dir Wind Speed Gust Speed Precip Events Conditions
12:15 AM 70.7 °F - 67.6 °F 90% 30.07 in 10.0 mi Calm Calm - N/A   Clear
12:35 AM 70.5 °F - 67.6 °F 91% 30.08 in 10.0 mi Calm Calm - N/A   Clear
12:55 AM 69.6 °F - 67.1 °F 92% 30.08 in 10.0 mi Calm Calm - N/A   Clear
1:15 AM 70.0 °F - 67.3 °F 91% 30.09 in 10.0 mi Calm Calm - N/A   Clear
1:35 AM 69.4 °F - 67.1 °F 92% 30.09 in 10.0 mi Calm Calm - N/A   Clear
1:55 AM 69.4 °F - 67.3 °F 93% 30.09 in 10.0 mi Calm Calm - N/A   Clear
2:15 AM 69.3 °F - 67.1 °F 93% 30.09 in 10.0 mi Calm Calm - N/A   Clear
2:35 AM 69.1 °F - 67.1 °F 93% 30.09 in 10.0 mi Calm Calm - N/A   Clear
2:55 AM 69.3 °F - 67.1 °F 93% 30.09 in 10.0 mi Calm Calm - N/A   Clear
3:15 AM 68.9 °F - 67.1 °F 94% 30.09 in 7.0 mi Calm Calm - N/A   Clear
3:35 AM 68.9 °F - 67.1 °F 94% 30.09 in 10.0 mi Calm Calm - N/A   Clear
3:55 AM 68.5 °F - 66.7 °F 94% 30.10 in 10.0 mi Calm Calm - N/A   Scattered Clouds
4:15 AM 68.2 °F - 66.4 °F 94% 30.11 in 10.0 mi Calm Calm - N/A   Scattered Clouds
4:35 AM 68.2 °F - 66.4 °F 94% 30.11 in 10.0 mi Calm Calm - N/A   Scattered Clouds
4:55 AM 68.0 °F - 66.2 °F 94% 30.12 in 7.0 mi Calm Calm - N/A   Clear
5:15 AM 67.8 °F - 66.2 °F 95% 30.13 in 7.0 mi Calm Calm - N/A   Clear
5:35 AM 67.5 °F - 66.0 °F 95% 30.14 in 7.0 mi Calm Calm - N/A   Clear
5:55 AM 67.5 °F - 66.6 °F 97% 30.14 in 7.0 mi Calm Calm - N/A   Clear
6:15 AM 67.6 °F - 67.1 °F 98% 30.14 in 7.0 mi Calm Calm - N/A   Clear
6:35 AM 67.3 °F - 67.1 °F 99% 30.15 in 7.0 mi Calm Calm - N/A   Scattered Clouds
6:55 AM 67.3 °F - 66.9 °F 99% 30.16 in 7.0 mi Calm Calm - N/A   Scattered Clouds
7:15 AM 67.5 °F - 67.5 °F 100% 30.16 in 7.0 mi Calm Calm - N/A   Clear
7:35 AM 68.2 °F - 68.2 °F 100% 30.17 in 7.0 mi Calm Calm - N/A   Clear
7:55 AM 69.6 °F - 69.1 °F 98% 30.17 in 10.0 mi Calm Calm - N/A   Clear
8:15 AM 72.1 °F - 69.3 °F 91% 30.18 in 7.0 mi Calm Calm - N/A   Clear
8:35 AM 75.0 °F - 70.0 °F 84% 30.18 in 7.0 mi Calm Calm - N/A   Clear
8:55 AM 77.9 °F - 69.6 °F 76% 30.19 in 10.0 mi Calm Calm - N/A   Clear
9:15 AM 80.1 °F 82.8 °F 68.7 °F 68% 30.19 in 10.0 mi Calm Calm - N/A   Clear
9:35 AM 82.2 °F 85.1 °F 68.0 °F 62% 30.19 in 10.0 mi Calm Calm - N/A   Clear
9:55 AM 84.9 °F 87.9 °F 67.5 °F 56% 30.19 in 10.0 mi Calm Calm - N/A   Clear
10:15 AM 86.0 °F 88.5 °F 66.6 °F 52% 30.19 in 10.0 mi Calm Calm - N/A   Clear
10:35 AM 87.6 °F 90.1 °F 66.2 °F 49% 30.18 in 10.0 mi Calm Calm - N/A   Clear
10:55 AM 89.4 °F 91.5 °F 65.5 °F 45% 30.18 in 10.0 mi Calm Calm - N/A   Clear
11:15 AM 89.8 °F 91.4 °F 64.2 °F 43% 30.17 in 10.0 mi Calm Calm - N/A   Clear
11:35 AM 90.1 °F 92.0 °F 64.9 °F 43% 30.17 in 10.0 mi Calm Calm - N/A   Clear
11:55 AM 91.4 °F 93.2 °F 64.8 °F 41% 30.16 in 10.0 mi Calm Calm - N/A   Clear
12:15 PM 91.4 °F 93.2 °F 64.8 °F 41% 30.16 in 10.0 mi Calm Calm - N/A   Clear
12:35 PM 89.8 °F 91.4 °F 64.6 °F 43% 30.15 in 10.0 mi Calm Calm - N/A   Scattered Clouds
12:55 PM 91.8 °F 93.4 °F 64.6 °F 40% 30.14 in 10.0 mi Calm Calm - N/A   Mostly Cloudy
1:15 PM 90.5 °F 92.5 °F 64.9 °F 43% 30.13 in 10.0 mi Calm Calm - N/A   Mostly Cloudy
1:35 PM 90.5 °F 92.5 °F 65.3 °F 43% 30.13 in 10.0 mi Calm Calm - N/A   Overcast
1:55 PM 91.9 °F 93.7 °F 64.8 °F 40% 30.12 in 10.0 mi Calm Calm - N/A   Mostly Cloudy
2:15 PM 93.2 °F 95.3 °F 64.8 °F 39% 30.11 in 10.0 mi Calm Calm - N/A   Mostly Cloudy
2:35 PM 93.7 °F 95.8 °F 64.9 °F 38% 30.10 in 10.0 mi Calm Calm - N/A   Scattered Clouds
2:55 PM 95.2 °F 96.8 °F 63.7 °F 35% 30.09 in 10.0 mi Calm Calm - N/A   Mostly Cloudy
3:15 PM 92.3 °F 93.8 °F 64.2 °F 39% 30.09 in 10.0 mi Calm Calm - N/A   Overcast
3:35 PM 91.8 °F 93.4 °F 64.6 °F 40% 30.09 in 10.0 mi Calm Calm - N/A   Mostly Cloudy
3:55 PM 91.9 °F 93.7 °F 64.8 °F 40% 30.08 in 10.0 mi Calm Calm - N/A   Scattered Clouds
4:15 PM 91.8 °F 93.0 °F 63.3 °F 39% 30.08 in 10.0 mi Calm Calm - N/A   Clear
4:35 PM 94.8 °F 96.2 °F 63.0 °F 35% 30.08 in 10.0 mi Calm Calm - N/A   Clear
4:55 PM 94.1 °F 95.5 °F 63.5 °F 36% 30.07 in 10.0 mi Calm Calm - N/A   Mostly Cloudy
5:35 PM 91.8 °F 93.8 °F 64.8 °F 41% 30.07 in 10.0 mi Calm Calm - N/A   Clear
5:55 PM 91.4 °F 94.0 °F 65.8 °F 43% 30.07 in 10.0 mi Calm Calm - N/A   Clear
6:15 PM 90.5 °F 93.3 °F 66.4 °F 45% 30.07 in 10.0 mi Calm Calm - N/A   Clear
6:35 PM 87.8 °F 91.4 °F 68.4 °F 52% 30.07 in 10.0 mi Calm Calm - N/A   Clear
6:55 PM 84.0 °F 88.4 °F 70.3 °F 63% 30.07 in 10.0 mi Calm Calm - N/A   Clear
7:15 PM 82.6 °F 85.9 °F 68.9 °F 63% 30.08 in 10.0 mi Calm Calm - N/A   Clear
7:35 PM 81.3 °F 84.5 °F 68.9 °F 66% 30.08 in 10.0 mi Calm Calm - N/A   Clear
7:55 PM 78.8 °F - 69.6 °F 73% 30.09 in 10.0 mi Calm Calm - N/A   Clear
8:15 PM 78.8 °F - 69.1 °F 72% 30.09 in 10.0 mi Calm Calm - N/A   Clear
8:35 PM 77.9 °F - 69.4 °F 75% 30.09 in 10.0 mi Calm Calm - N/A   Clear
8:55 PM 77.0 °F - 69.6 °F 78% 30.10 in 10.0 mi Calm Calm - N/A   Clear
9:15 PM 75.4 °F - 69.3 °F 81% 30.11 in 10.0 mi Calm Calm - N/A   Clear
9:35 PM 75.6 °F - 69.6 °F 82% 30.11 in 10.0 mi Calm Calm - N/A   Clear
9:55 PM 75.2 °F - 69.4 °F 82% 30.11 in 10.0 mi Calm Calm - N/A   Clear
10:35 PM 73.9 °F - 69.3 °F 85% 30.11 in 10.0 mi Calm Calm - N/A   Clear
10:55 PM 73.6 °F - 69.1 °F 86% 30.12 in 10.0 mi Calm Calm - N/A   Clear
11:15 PM 73.0 °F - 69.1 °F 87% 30.12 in 10.0 mi Calm Calm - N/A   Clear
11:35 PM 72.7 °F - 69.1 °F 88% 30.12 in 10.0 mi Calm Calm - N/A   Clear